Indianapolis Mount Comfort, IN

12:56 AM EDT on April 27, 2017 (GMT -0400)
Mount Comfort

Weather History for KMQJ - January, 2014

Change the Weather History Date:

Monday, January 27, 2014

  Actual Average (KEYE) Record (KEYE)
Temperature  
Mean Temperature 11 °F -  
Max Temperature 26 °F 34 °F 61 °F (1999)
Min Temperature -4 °F 19 °F -9 °F (2003)
Degree Days  
Heating Degree Days 54    
Moisture  
Dew Point -3 °F    
Average Humidity 65    
Maximum Humidity 86    
Minimum Humidity 41    
Precipitation  
Precipitation 0.00 in - - ()
Sea Level Pressure  
Sea Level Pressure 30.16 in    
Wind  
Wind Speed 22 mph (WNW)    
Max Wind Speed 45 mph    
Max Gust Speed 54 mph    
Visibility 10 miles    
Events      
Averages and records for this station are not official NWS values.
T = Trace of Precipitation, MM = Missing Value Source: NWS Daily Summary

Daily Weather History Graph

Daily Weather History Graph

Search for Another Location

Airport or City:

Trip Planner

Search our weather history database for the weather conditions in past years. The results will help you decide how hot, cold, wet, or windy it might be!

Date:

Astronomy

Jan. 27, 2014 Rise Set
Actual Time 7:56 AM EST 5:57 PM EST
Civil Twilight 7:27 AM EST 6:26 PM EST
Nautical Twilight 6:54 AM EST 6:58 PM EST
Astronomical Twilight 6:22 AM EST 7:30 PM EST
Moon 4:36 AM EST 2:42 PM EST
Length of Visible Light 10h 58m
Length of Day
10h 01m
Waning Crescent, 15% of the Moon is Illuminated
Jan 27
Waning Crescent
Jan 30
New
Feb 6
First Quarter
Feb 14
Full
Feb 22
Last Quarter

Hourly Weather History & Observations

Time (EST) Temp. Windchill Dew Point Humidity Pressure Visibility Wind Dir Wind Speed Gust Speed Precip Events Conditions
12:14 AM 26.6 °F 10.3 °F 23.0 °F 86% 29.70 in 2.5 mi NW 29.9 mph 42.6 mph N/A   Overcast
12:34 AM 21.2 °F 3.9 °F 17.6 °F 86% 29.75 in 1.8 mi NW 26.5 mph 43.7 mph N/A   Overcast
12:55 AM 21.2 °F 3.5 °F 14.0 °F 74% 29.76 in 2.5 mi NW 27.6 mph 40.3 mph N/A   Overcast
1:14 AM 21.2 °F 2.4 °F 12.2 °F 68% 29.78 in 10.0 mi WNW 32.2 mph 43.7 mph N/A   Mostly Cloudy
1:34 AM 19.4 °F 1.1 °F 8.6 °F 63% 29.79 in 10.0 mi WNW 27.6 mph 43.7 mph N/A   Mostly Cloudy
1:55 AM 17.6 °F -5.2 °F 3.2 °F 53% 29.79 in 10.0 mi WNW 44.9 mph 50.6 mph N/A   Overcast
2:14 AM 15.8 °F -6.6 °F -4.0 °F 41% 29.83 in 10.0 mi NW 39.1 mph 54.1 mph N/A   Overcast
2:34 AM 14.0 °F -6.2 °F -0.4 °F 53% 29.85 in 10.0 mi NW 27.6 mph 42.6 mph N/A   Overcast
2:55 AM 14.0 °F -4.7 °F 3.2 °F 62% 29.87 in 10.0 mi WNW 23.0 mph 34.5 mph N/A   Overcast
3:14 AM 14.0 °F -5.5 °F 3.2 °F 62% 29.89 in 10.0 mi WNW 25.3 mph 41.4 mph N/A   Overcast
3:35 AM 10.4 °F -11.7 °F -2.2 °F 57% 29.92 in 10.0 mi WNW 29.9 mph 47.2 mph N/A   Scattered Clouds
3:55 AM 10.4 °F -9.1 °F 1.4 °F 67% 29.95 in 10.0 mi NW 21.9 mph 40.3 mph N/A   Clear
4:14 AM 8.6 °F -13.4 °F -2.2 °F 62% 29.96 in 10.0 mi WNW 27.6 mph 36.8 mph N/A   Clear
4:35 AM 8.6 °F -10.0 °F -0.4 °F 67% 29.98 in 10.0 mi NW 18.4 mph 27.6 mph N/A   Clear
4:55 AM 6.8 °F -13.4 °F -2.2 °F 67% 30.00 in 10.0 mi WNW 20.7 mph 31.1 mph N/A   Clear
5:14 AM 6.8 °F -13.8 °F -2.2 °F 67% 30.02 in 10.0 mi NW 21.9 mph 27.6 mph N/A   Clear
5:35 AM 5.0 °F -14.2 °F -4.0 °F 66% 30.03 in 10.0 mi NW 17.3 mph 24.2 mph N/A   Clear
5:55 AM 5.0 °F -14.7 °F -2.2 °F 72% 30.04 in 10.0 mi WNW 18.4 mph 27.6 mph N/A   Scattered Clouds
6:14 AM 5.0 °F -16.2 °F -2.2 °F 72% 30.05 in 10.0 mi WNW 21.9 mph 26.5 mph N/A   Mostly Cloudy
6:35 AM 5.0 °F -15.7 °F -4.0 °F 66% 30.07 in 10.0 mi NW 20.7 mph 26.5 mph N/A   Clear
6:55 AM 3.2 °F -14.6 °F -4.0 °F 72% 30.09 in 10.0 mi WNW 13.8 mph 24.2 mph N/A   Scattered Clouds
7:14 AM 3.2 °F -17.1 °F -4.0 °F 72% 30.10 in 10.0 mi NW 18.4 mph 26.5 mph N/A   Clear
7:35 AM 3.2 °F -19.0 °F -5.8 °F 66% 30.11 in 10.0 mi NW 23.0 mph 29.9 mph N/A   Clear
7:55 AM 3.2 °F -19.5 °F -5.8 °F 66% 30.13 in 10.0 mi WNW 24.2 mph 28.8 mph N/A   Clear
8:14 AM 3.2 °F -19.0 °F -5.8 °F 66% 30.14 in 10.0 mi WNW 23.0 mph 31.1 mph N/A   Clear
8:35 AM 3.2 °F -17.6 °F -5.8 °F 66% 30.16 in 10.0 mi WNW 19.6 mph - N/A   Scattered Clouds
8:55 AM 1.4 °F -18.2 °F -5.8 °F 72% 30.17 in 10.0 mi WNW 16.1 mph 23.0 mph N/A   Scattered Clouds
9:14 AM 1.4 °F -16.1 °F -5.8 °F 72% 30.19 in 10.0 mi WNW 12.7 mph - N/A   Clear
9:35 AM 3.2 °F -15.9 °F -5.8 °F 66% 30.19 in 10.0 mi WNW 16.1 mph 25.3 mph N/A   Clear
9:55 AM 3.2 °F -13.1 °F -5.8 °F 66% 30.20 in 10.0 mi WNW 11.5 mph - N/A   Clear
10:14 AM 5.0 °F -11.6 °F -5.8 °F 61% 30.21 in 10.0 mi WNW 12.7 mph 19.6 mph N/A   Clear
10:35 AM 5.0 °F -13.0 °F -5.8 °F 61% 30.21 in 10.0 mi WNW 15.0 mph 20.7 mph N/A   Clear
10:54 AM 5.0 °F -13.0 °F -5.8 °F 61% 30.22 in 10.0 mi WNW 15.0 mph - N/A   Clear
11:14 AM 6.8 °F -10.7 °F -4.0 °F 61% 30.23 in 10.0 mi WNW 15.0 mph - N/A   Clear
11:35 AM 6.8 °F -11.3 °F -4.0 °F 61% 30.24 in 10.0 mi WNW 16.1 mph 20.7 mph N/A   Clear
11:54 AM 6.8 °F -9.3 °F -4.0 °F 61% 30.23 in 10.0 mi WNW 12.7 mph - N/A   Clear
12:14 PM 8.6 °F -7.7 °F -4.0 °F 57% 30.23 in 10.0 mi WNW 13.8 mph 18.4 mph N/A   Clear
12:35 PM 8.6 °F -8.3 °F -2.2 °F 62% 30.23 in 10.0 mi WNW 15.0 mph - N/A   Clear
12:54 PM 8.6 °F -10.0 °F -2.2 °F 62% 30.23 in 10.0 mi West 18.4 mph 21.9 mph N/A   Clear
1:14 PM 8.6 °F -9.5 °F -2.2 °F 62% 30.23 in 10.0 mi WNW 17.3 mph 23.0 mph N/A   Clear
1:35 PM 8.6 °F -9.5 °F -2.2 °F 62% 30.22 in 10.0 mi West 17.3 mph 25.3 mph N/A   Clear
1:54 PM 8.6 °F -11.4 °F -2.2 °F 62% 30.22 in 10.0 mi WNW 21.9 mph 26.5 mph N/A   Clear
2:14 PM 8.6 °F -9.5 °F -2.2 °F 62% 30.23 in 10.0 mi WNW 17.3 mph - N/A   Clear
2:35 PM 10.4 °F -6.6 °F -2.2 °F 57% 30.23 in 10.0 mi WNW 16.1 mph 26.5 mph N/A   Clear
2:54 PM 8.6 °F -9.5 °F -2.2 °F 62% 30.23 in 10.0 mi WNW 17.3 mph 24.2 mph N/A   Clear
3:14 PM 8.6 °F -8.3 °F -2.2 °F 62% 30.23 in 10.0 mi WNW 15.0 mph - N/A   Clear
3:34 PM 8.6 °F -10.5 °F -2.2 °F 62% 30.23 in 10.0 mi WNW 19.6 mph 24.2 mph N/A   Clear
3:54 PM 8.6 °F -9.5 °F -4.0 °F 57% 30.24 in 10.0 mi West 17.3 mph 26.5 mph N/A   Clear
4:15 PM 8.6 °F -9.5 °F -4.0 °F 57% 30.24 in 10.0 mi WNW 17.3 mph 23.0 mph N/A   Clear
4:34 PM 6.8 °F -11.3 °F -2.2 °F 67% 30.26 in 10.0 mi WNW 16.1 mph 25.3 mph N/A   Scattered Clouds
4:54 PM 6.8 °F -11.8 °F -2.2 °F 67% 30.26 in 7.0 mi NW 17.3 mph 23.0 mph N/A   Scattered Clouds
5:15 PM 6.8 °F -11.3 °F -2.2 °F 67% 30.27 in 10.0 mi WNW 16.1 mph 24.2 mph N/A   Scattered Clouds
5:34 PM 6.8 °F -13.4 °F -4.0 °F 61% 30.28 in 10.0 mi West 20.7 mph - N/A   Scattered Clouds
5:54 PM 5.0 °F -13.6 °F -5.8 °F 61% 30.29 in 10.0 mi WNW 16.1 mph - N/A   Clear
6:15 PM 5.0 °F -12.3 °F -5.8 °F 61% 30.30 in 10.0 mi NW 13.8 mph 19.6 mph N/A   Scattered Clouds
6:34 PM 5.0 °F -14.7 °F -5.8 °F 61% 30.32 in 10.0 mi WNW 18.4 mph - N/A   Clear
6:55 PM 3.2 °F -14.6 °F -7.6 °F 61% 30.32 in 10.0 mi WNW 13.8 mph 25.3 mph N/A   Clear
7:15 PM 3.2 °F -15.3 °F -7.6 °F 61% 30.33 in 10.0 mi NW 15.0 mph 19.6 mph N/A   Clear
7:34 PM 3.2 °F -13.9 °F -7.6 °F 61% 30.33 in 10.0 mi NW 12.7 mph - N/A   Clear
7:55 PM 1.4 °F -16.9 °F -7.6 °F 66% 30.34 in 10.0 mi NW 13.8 mph 20.7 mph N/A   Clear
8:15 PM 1.4 °F -15.3 °F -7.6 °F 66% 30.35 in 10.0 mi NW 11.5 mph 17.3 mph N/A   Clear
8:34 PM 1.4 °F -16.1 °F -7.6 °F 66% 30.36 in 10.0 mi NW 12.7 mph 17.3 mph N/A   Clear
8:55 PM -0.4 °F -18.4 °F -7.6 °F 72% 30.37 in 10.0 mi NW 12.7 mph - N/A   Clear
9:15 PM -0.4 °F -15.7 °F -7.6 °F 72% 30.38 in 10.0 mi NW 9.2 mph - N/A   Clear
9:34 PM -0.4 °F -13.4 °F -9.4 °F 66% 30.39 in 10.0 mi NW 6.9 mph - N/A   Clear
9:55 PM -0.4 °F -13.4 °F -9.4 °F 66% 30.40 in 10.0 mi NW 6.9 mph - N/A   Clear
10:14 PM -2.2 °F -21.5 °F -9.4 °F 71% 30.40 in 10.0 mi NW 13.8 mph 18.4 mph N/A   Clear
10:34 PM -2.2 °F -20.7 °F -11.2 °F 66% 30.40 in 10.0 mi NNW 12.7 mph 16.1 mph N/A   Clear
10:55 PM -2.2 °F -21.5 °F -9.4 °F 71% 30.40 in 10.0 mi NNW 13.8 mph - N/A   Clear
11:14 PM -2.2 °F -18.9 °F -13.0 °F 60% 30.41 in 10.0 mi NW 10.4 mph - N/A   Clear
11:34 PM -4.0 °F -14.6 °F -11.2 °F 71% 30.41 in 10.0 mi North 4.6 mph - N/A   Clear
11:55 PM -4.0 °F -14.6 °F -11.2 °F 71% 30.43 in 10.0 mi NW 4.6 mph - N/A   Clear